Wind_Speed
2 1 1 1 2 2 2 1 1 3 3 3 3 4 5 5 6 6 7 7 7 8 9 10 10 11 12 13 14 16 17 17 16 12 8 7 6 5 5 4 1 5 7 7 8 6 4 2 3 4 3 2 1 1 1 1 2 4 3 3 1 2 3 4 1 2 2 2 3 2 2 4 2 5 3 3 3 4 7 8 5 5 7 12 19 22 12 6
2 2 1 1 1 2 2 2 2 3 3 3 4 4 5 5 6 6 7 7 7 8 9 10 10 11 12 12 14 15 18 18 15 12 9 6 3 3 3 3 1 5 8 8 8 8 6 3 5 5 4 1 1 1 1 1 2 3 3 2 3 5 5 3 2 4 2 2 3 3 3 4 2 4 2 3 7 5 6 10 7 8 11 11 15 14 8 9
3 3 3 2 2 3 3 3 3 3 3 4 4 4 5 5 6 6 6 7 7 8 8 9 9 10 10 11 12 13 16 15 9 7 4 2 3 2 2 2 1 5 7 7 6 7 6 3 7 6 3 0 2 1 1 1 0 1 3 2 5 6 4 5 4 4 1 2 2 3 4 5 5 3 2 3 8 7 6 9 8 10 13 11 8 7 4 8
4 3 3 3 3 3 3 4 3 3 3 4 4 4 5 5 6 6 6 7 7 7 8 8 8 8 8 9 9 11 12 8 3 3 2 6 5 3 2 2 1 4 7 6 4 6 6 4 5 6 3 1 2 2 2 3 2 1 4 4 7 4 3 7 7 4 2 2 2 2 4 6 6 2 2 5 7 8 8 8 10 13 14 12 9 9 8 6
4 3 3 2 2 2 2 2 2 3 3 4 4 5 5 6 6 6 7 8 8 8 8 8 8 8 8 8 7 8 8 4 1 2 4 7 6 3 2 2 1 6 7 4 2 3 5 4 2 3 2 1 3 2 3 6 4 1 4 6 7 3 3 7 6 4 3 3 2 3 5 5 3 2 4 5 6 9 8 8 10 13 12 11 10 11 11 6
3 3 3 2 1 2 2 2 3 3 4 5 5 5 6 7 7 8 8 9 9 8 8 8 8 7 7 6 5 5 3 1 3 3 5 6 5 2 2 1 1 7 9 4 2 1 2 3 3 2 1 0 2 2 5 4 5 2 4 5 6 5 4 5 5 5 5 4 4 4 3 2 3 6 5 5 11 13 11 9 10 13 14 12 10 8 8 9
2 3 3 2 1 1 2 2 3 3 4 5 5 6 7 8 8 9 9 9 9 9 8 8 7 7 5 4 3 3 1 4 6 4 7 6 3 1 1 1 2 8 10 4 1 1 1 1 1 2 1 2 3 5 6 3 4 5 4 5 6 5 4 6 5 6 6 6 7 4 2 3 5 6 3 6 14 15 13 10 10 14 16 13 9 7 8 9
2 3 2 1 1 1 2 3 3 4 4 5 5 6 7 8 9 9 10 10 10 10 9 7 6 5 4 2 1 3 1 6 6 4 8 6 3 3 2 2 4 10 9 5 4 2 2 1 3 3 0 3 2 2 4 5 0 4 3 4 3 4 5 7 7 7 9 8 7 6 6 7 9 4 4 11 16 16 14 10 9 12 13 11 9 8 7 8
2 2 1 1 2 2 3 3 4 4 4 5 6 6 7 8 9 10 10 11 10 10 9 7 6 4 3 1 3 2 3 6 5 5 6 4 4 3 2 3 6 10 8 5 7 3 2 3 5 3 2 3 1 4 3 4 2 2 2 3 4 5 6 7 7 9 10 7 5 7 10 10 7 2 5 13 16 16 12 8 9 8 9 10 8 8 6 6
1 1 2 2 3 3 2 3 3 4 5 5 6 7 8 9 9 10 10 11 10 10 9 6 5 2 2 2 4 1 5 4 3 5 5 3 4 3 4 4 6 10 7 4 6 5 3 3 4 4 3 2 1 4 3 1 3 2 3 4 5 6 8 7 9 12 9 7 7 7 13 11 2 1 5 11 13 12 9 9 9 6 7 8 8 6 6 11
2 2 3 3 3 2 3 3 3 4 5 6 7 7 8 9 9 10 10 11 10 9 7 5 3 3 3 3 4 3 5 4 3 2 3 2 3 3 5 4 4 9 7 4 4 3 1 2 2 3 1 1 1 5 4 1 2 2 3 6 8 8 9 10 11 13 6 4 8 8 11 11 1 3 8 12 11 10 8 8 7 6 6 7 6 6 11 12
3 3 4 4 3 3 3 3 4 4 6 7 8 9 10 10 10 11 11 11 10 8 6 3 3 5 4 3 3 7 5 5 4 1 1 2 2 4 6 5 5 7 7 4 1 3 3 3 5 3 2 0 1 3 2 2 1 3 2 4 8 7 8 12 10 10 5 3 6 7 4 9 2 6 11 11 8 8 8 7 5 5 6 7 6 10 11 11
3 3 3 4 3 3 3 4 5 6 7 8 10 10 11 12 12 13 12 11 10 8 5 2 4 7 4 0 5 10 11 9 6 4 4 3 4 6 8 7 6 6 6 4 2 4 3 2 5 3 2 2 1 2 1 0 2 4 1 2 5 5 6 11 7 6 4 3 4 8 1 8 6 8 9 9 6 7 11 10 7 6 7 6 8 10 9 13
3 2 3 3 3 3 3 5 6 7 8 10 11 11 12 12 13 14 12 10 8 7 4 2 6 7 4 2 4 7 12 10 8 7 6 6 6 6 7 8 7 5 4 3 2 3 4 3 5 3 0 2 2 2 3 3 1 3 1 2 1 1 5 10 5 2 0 2 2 6 3 7 9 9 7 8 6 6 9 11 8 7 6 6 9 8 9 12
2 1 1 2 2 2 3 5 6 7 9 10 11 12 12 13 13 12 10 8 6 4 1 4 7 6 1 5 4 4 8 7 7 7 6 7 7 5 5 7 6 5 3 2 1 2 3 3 4 3 2 1 1 2 3 4 2 2 0 2 2 3 5 10 7 3 3 2 2 4 4 5 9 12 8 6 7 6 7 10 9 6 7 9 8 8 8 8
2 1 1 1 3 3 3 5 6 7 8 10 11 12 13 13 12 9 7 6 2 2 4 4 5 4 2 3 1 2 5 5 7 8 7 7 6 4 6 6 5 4 3 2 2 1 3 3 2 2 1 2 2 4 3 4 4 2 2 3 4 3 3 5 6 2 5 3 1 2 3 4 5 10 11 7 7 7 6 8 7 8 10 9 7 8 8 7
5 3 1 3 4 5 5 5 6 7 8 9 11 12 13 12 8 4 4 3 3 5 5 3 2 1 2 1 1 1 4 5 7 9 8 7 6 7 8 5 4 6 5 3 3 2 2 2 0 1 1 1 2 4 4 2 4 4 1 3 4 4 2 3 6 4 4 5 2 4 4 6 7 8 13 13 10 6 6 6 5 9 8 8 7 8 9 9
7 4 1 3 4 5 6 7 7 7 8 9 10 12 12 7 3 1 1 3 3 3 3 2 2 0 2 1 2 2 3 5 7 7 8 8 8 9 6 3 5 7 6 4 2 2 2 1 2 1 2 2 1 4 2 5 5 4 4 3 4 4 3 4 5 2 2 2 3 5 6 8 9 9 11 16 13 5 4 3 8 9 8 8 8 8 9 10
7 5 2 2 3 4 5 8 8 8 9 8 10 11 7 3 1 1 0 2 2 1 0 1 3 2 2 2 3 3 4 6 6 5 8 9 9 8 4 3 7 6 4 2 1 1 2 3 4 1 2 3 5 7 9 9 8 7 7 5 5 5 4 6 7 4 3 3 5 7 8 7 8 9 10 14 12 6 6 7 9 7 8 8 7 8 8 10
7 4 4 4 3 4 5 7 8 8 8 8 10 9 3 2 2 1 1 1 3 5 2 4 6 4 5 2 4 6 6 5 3 3 8 9 9 7 2 2 5 3 2 4 3 2 3 4 2 4 6 9 10 11 11 10 7 7 6 6 6 5 5 6 6 5 3 2 6 7 6 5 6 8 10 12 8 6 6 8 8 7 8 7 8 9 8 9
6 5 6 6 6 5 6 7 8 7 6 8 10 5 2 1 1 1 3 3 8 11 8 10 11 10 10 5 8 9 5 2 1 2 8 9 8 6 2 1 4 0 3 5 3 1 4 4 6 9 11 12 11 9 8 7 7 6 6 6 5 5 6 6 6 6 2 2 6 4 2 6 7 8 13 10 5 4 5 9 8 9 9 6 9 9 8 7
7 7 7 7 8 7 7 8 9 6 3 5 5 2 3 2 1 2 1 3 8 10 11 13 12 11 13 8 7 7 3 1 0 1 7 8 5 4 3 3 5 4 3 4 3 1 3 4 10 12 11 10 9 7 6 7 7 6 5 3 3 4 4 6 6 5 0 3 5 5 3 6 8 10 13 7 5 4 4 8 8 9 9 7 8 7 7 7
9 9 7 8 8 8 9 9 8 5 1 2 2 3 3 2 2 2 2 1 6 7 7 9 8 7 9 6 5 6 3 4 3 4 9 9 3 3 4 5 6 4 3 5 5 5 4 6 12 13 8 7 9 8 7 7 5 5 4 3 4 4 2 4 5 4 1 2 3 4 4 5 7 8 7 6 7 8 8 9 8 7 9 8 7 7 7 8
10 9 8 9 8 9 9 9 7 3 1 1 2 2 2 1 2 3 2 0 4 5 4 5 4 3 3 2 4 5 3 4 2 4 11 11 4 3 4 6 7 5 5 8 9 9 7 8 10 9 7 7 9 9 7 6 4 4 5 5 5 5 5 6 4 4 3 4 2 1 4 4 6 8 1 4 5 8 8 9 10 7 7 8 8 8 8 8
12 11 9 9 9 8 9 7 4 2 2 2 2 2 2 1 3 4 2 1 3 5 3 1 0 1 2 2 2 4 2 1 1 2 8 9 4 3 3 4 5 5 7 8 8 8 8 7 5 6 7 7 7 8 7 6 4 4 4 7 8 8 8 7 2 4 4 5 3 1 3 5 5 7 5 4 5 6 5 7 9 7 6 6 7 8 7 7
13 11 9 9 10 8 7 4 2 3 2 4 3 1 1 1 3 4 2 2 3 4 1 1 1 1 2 1 1 3 3 1 2 0 4 3 1 1 2 3 2 4 7 5 3 3 5 6 5 6 8 7 7 7 6 6 4 3 5 6 7 7 6 5 2 2 0 4 3 3 1 5 5 5 5 5 5 7 5 7 7 5 6 6 6 7 5 6
13 11 10 13 13 8 4 2 4 3 2 4 4 2 0 1 2 3 2 3 3 1 3 1 1 2 2 0 1 4 2 2 1 2 3 2 3 1 2 3 1 2 3 1 0 3 4 4 4 4 4 5 6 6 5 7 6 4 5 3 4 4 5 4 4 3 3 3 5 2 3 4 6 4 9 10 5 7 6 6 6 5 6 6 6 6 5 6
15 12 12 16 15 12 8 4 3 4 3 4 4 2 1 2 3 2 3 2 2 2 2 1 1 2 1 1 2 4 1 1 3 1 3 4 3 2 0 3 2 2 3 3 3 6 1 3 4 5 4 3 5 5 4 8 5 5 4 4 5 5 4 3 4 2 2 2 5 3 4 2 6 5 9 9 5 5 5 6 6 6 6 6 6 6 5 6
16 15 18 19 16 14 13 9 5 4 6 6 4 1 1 2 2 3 3 1 0 2 0 0 2 1 1 3 2 2 1 1 2 2 2 2 1 2 1 3 1 2 4 2 5 6 1 3 5 5 4 5 6 3 2 7 4 4 2 4 4 4 4 4 4 3 3 2 5 6 5 3 5 6 5 2 4 6 6 6 6 6 6 6 6 5 5 5
17 19 22 20 17 15 12 12 12 8 5 4 2 0 2 1 2 2 2 2 1 1 0 1 1 1 3 4 1 1 2 1 1 1 2 1 2 3 0 1 2 2 3 3 2 5 3 1 2 3 4 5 4 1 3 4 3 2 5 5 6 5 5 4 2 4 3 3 6 8 9 6 2 6 4 2 3 7 9 7 7 7 7 6 5 5 4 5
21 21 23 21 19 16 10 8 14 15 9 5 2 1 2 0 2 3 4 1 1 0 2 1 1 2 4 4 2 2 2 1 2 2 1 1 3 3 2 1 2 3 3 5 4 4 4 2 2 2 2 3 5 2 3 4 3 4 5 4 4 4 4 5 4 4 2 5 6 7 8 7 4 6 3 3 5 5 11 11 12 10 8 7 5 5 4 4
26 24 23 22 19 18 12 6 10 16 13 8 3 2 2 1 2 3 2 1 1 2 3 2 3 4 4 3 3 4 3 2 3 3 3 3 3 2 2 3 3 2 2 3 3 4 3 4 4 2 1 4 5 1 3 6 5 5 4 5 3 3 3 2 1 0 3 6 6 4 4 4 6 5 1 4 7 4 8 9 12 12 9 8 6 5 5 4
28 25 23 22 20 18 15 9 8 13 14 10 5 3 2 3 4 3 3 2 1 2 3 3 3 3 4 3 2 3 3 2 4 3 2 4 3 3 4 4 5 3 1 4 1 2 3 5 2 1 3 2 7 4 2 2 1 4 4 4 4 2 1 2 4 2 3 5 5 3 3 2 5 2 4 5 5 6 10 11 10 10 10 8 7 6 5 5
23 21 21 21 20 18 17 13 9 11 15 11 5 3 2 4 3 4 6 5 1 2 2 2 2 2 3 2 3 3 3 2 5 4 3 4 3 3 4 5 5 3 2 3 1 2 2 5 3 5 2 4 8 7 5 4 3 5 5 5 4 4 4 3 4 3 3 4 4 3 1 3 3 0 4 4 6 8 10 10 9 9 8 7 7 6 5 5
18 18 18 20 20 18 17 15 10 12 16 9 4 3 5 4 1 3 5 4 1 2 1 1 3 3 1 2 3 3 2 2 4 5 3 4 4 3 3 4 7 6 3 2 2 2 4 5 5 2 1 5 6 4 5 7 1 3 3 4 2 4 4 2 3 4 3 2 4 3 2 2 3 2 3 5 7 9 9 9 9 8 6 6 6 5 5 4
18 17 15 17 20 19 18 15 12 16 15 6 3 5 5 4 3 3 3 2 2 3 3 1 3 2 2 2 2 2 1 0 3 3 2 4 4 4 5 3 6 9 7 4 3 1 2 4 3 3 2 4 6 4 3 4 1 1 3 3 5 4 5 1 4 2 2 2 4 2 2 2 2 2 2 5 7 8 7 7 8 6 6 6 5 5 4 4
18 15 11 13 19 20 20 16 14 16 11 4 5 6 4 5 5 4 2 1 2 2 4 2 1 3 3 1 1 2 1 1 2 2 1 3 3 4 5 2 1 7 6 3 2 2 2 3 3 2 1 3 3 2 2 1 3 3 2 4 3 1 3 3 1 2 1 4 3 2 6 5 2 2 1 4 6 6 5 6 7 6 6 6 5 5 4 4
16 10 6 12 20 21 21 19 16 13 6 3 8 6 4 5 3 3 3 2 2 2 3 3 2 2 3 2 1 1 1 1 1 2 1 3 3 1 3 1 2 1 0 2 1 1 2 1 5 2 4 2 2 4 3 5 3 4 3 2 1 1 2 1 1 2 4 6 4 4 8 6 4 4 4 6 7 7 7 6 6 6 6 5 5 5 5 4
11 5 1 9 19 20 21 22 16 9 4 5 9 6 3 3 3 3 3 2 2 2 2 2 2 2 2 3 2 0 1 1 2 2 1 2 3 1 3 1 1 4 5 3 3 1 2 1 4 3 1 0 3 3 2 3 3 2 1 2 1 3 3 2 2 3 3 5 5 5 6 4 3 3 6 9 10 10 9 7 6 6 6 6 5 5 5 5
6 2 1 5 16 19 22 21 11 5 6 6 5 4 2 2 4 4 4 3 1 1 2 3 2 2 2 2 2 2 2 3 4 3 2 2 3 1 2 1 2 2 5 5 3 1 1 2 3 4 3 1 0 1 5 4 1 1 2 2 1 1 1 2 2 2 3 3 4 5 5 4 3 1 3 8 10 10 10 9 7 6 7 7 7 6 6 6
3 1 1 4 15 21 20 14 6 4 5 3 3 3 3 2 2 3 3 4 3 0 1 3 4 5 4 3 4 3 3 3 4 4 3 3 3 2 0 1 2 2 2 5 3 1 1 1 2 2 3 2 4 5 4 5 4 3 2 3 3 2 1 3 4 2 3 3 4 5 6 5 2 3 2 3 7 8 8 9 8 7 9 9 7 7 7 7
3 2 1 6 18 22 14 6 4 4 3 3 3 3 3 3 2 2 3 3 4 2 1 2 4 5 4 4 4 4 4 3 4 5 3 4 4 3 3 3 3 3 3 2 0 0 2 2 2 3 4 4 6 6 2 2 3 4 3 2 3 3 3 3 5 3 1 2 2 2 4 3 1 2 2 3 6 8 9 9 9 9 9 9 8 8 8 7
2 2 2 9 21 20 8 4 4 3 4 2 3 2 3 2 2 4 4 3 3 3 2 2 4 5 5 5 5 5 5 4 5 6 4 3 2 1 2 4 4 4 3 1 1 1 3 2 1 3 4 3 5 4 3 4 2 1 1 1 1 2 2 3 4 1 1 3 3 2 4 3 1 2 1 3 5 7 7 8 9 8 7 7 9 9 8 7
2 2 2 9 21 17 6 5 5 5 5 2 2 4 3 3 4 5 6 5 4 4 3 3 4 6 6 6 6 6 6 4 4 4 4 3 2 1 2 3 4 3 1 1 2 1 1 1 2 0 2 4 6 5 5 5 3 1 2 1 2 2 1 1 0 2 1 4 4 4 5 3 1 2 2 1 4 6 6 7 7 7 7 7 8 8 6 6
3 1 1 5 15 12 4 2 3 4 7 6 5 7 6 4 5 7 8 7 5 5 4 4 5 6 4 5 5 5 6 5 2 2 3 3 2 2 4 5 5 4 1 2 3 3 2 2 3 3 3 5 4 3 3 2 2 0 2 3 1 2 1 0 1 1 2 1 1 3 4 3 2 1 1 2 3 5 7 7 6 6 7 8 7 6 6 6
3 2 1 2 6 6 4 2 1 2 6 7 6 7 10 8 4 6 9 8 7 7 4 2 5 5 4 6 6 5 7 5 4 3 3 3 2 1 2 5 5 4 4 3 4 4 2 1 2 5 6 7 6 6 4 3 1 2 4 6 7 5 3 3 2 3 3 0 3 7 7 6 8 7 5 6 6 7 8 7 7 7 8 8 7 6 6 6
2 2 4 4 3 5 5 5 4 4 4 6 5 5 9 11 6 4 6 6 7 7 3 1 5 6 6 8 7 5 6 5 5 5 4 4 2 0 2 4 4 5 6 3 2 4 4 2 4 6 6 6 5 5 1 3 2 5 5 7 10 9 4 4 4 4 2 1 7 10 7 6 10 12 8 6 7 8 8 8 8 9 9 7 4 5 6 6
2 1 3 3 2 5 8 8 10 10 8 7 5 5 8 12 10 7 5 4 5 7 5 3 6 8 8 9 7 5 5 5 5 6 5 4 3 3 2 3 2 2 3 2 1 4 5 4 4 4 4 6 4 3 2 1 2 5 6 8 10 12 10 6 7 8 6 6 10 10 9 10 11 11 9 6 7 8 8 8 7 6 5 4 5 7 7 7
2 1 2 1 0 5 8 10 13 13 13 10 7 8 11 12 12 8 5 4 3 6 8 7 8 10 9 8 7 5 6 6 5 4 4 3 3 4 3 1 2 1 3 2 1 3 3 2 2 3 3 6 5 3 2 1 3 5 7 10 11 12 11 8 9 12 9 9 11 11 12 14 12 10 8 7 6 6 5 3 2 3 4 6 7 8 8 7
1 0 1 1 1 2 3 5 9 10 12 11 9 10 10 10 10 6 4 5 6 6 9 9 8 9 9 9 8 6 6 7 7 6 5 5 3 3 3 2 1 2 3 2 1 1 2 1 1 2 0 5 4 1 2 1 4 6 10 12 12 11 10 10 12 11 9 10 13 12 12 12 10 7 6 5 3 2 3 3 4 4 6 7 7 7 7 7
1 1 1 1 1 3 2 2 6 7 7 9 10 10 10 10 10 5 1 3 5 5 9 12 9 6 5 7 7 6 5 6 8 6 6 6 5 3 2 2 4 4 1 1 1 1 1 1 0 3 2 5 3 3 1 4 4 7 13 17 15 11 10 11 9 8 9 11 12 10 9 9 6 4 4 2 2 3 3 4 4 3 5 7 7 7 7 7
3 2 2 2 1 3 3 3 5 6 6 7 9 9 9 10 8 6 2 2 2 1 5 10 11 6 4 7 7 7 7 7 8 6 5 5 4 4 3 3 5 5 3 2 1 0 3 3 1 3 2 5 3 4 3 2 3 7 12 13 14 12 11 10 8 9 12 10 8 8 8 7 5 4 5 2 1 2 4 4 3 3 4 6 6 7 7 8
Wind_Direction
278 270 253 260 289 291 309 321 315 305 322 329 326 328 326 329 330 333 333 334 336 333 335 333 335 336 335 335 334 332 329 326 323 311 282 286 289 292 320 340 321 179 169 152 143 143 140 158 214 171 107 26 57 103 346 356 74 57 79 103 256 225 209 210 260 322 218 263 295 293 59 80 332 322 325 310 321 293 291 289 269 268 252 242 257 270 277 221
315 309 295 289 306 312 314 329 328 322 347 354 350 341 331 334 330 336 337 337 337 332 334 332 335 336 335 337 334 334 329 324 321 305 290 291 269 267 320 337 192 172 169 161 164 167 154 191 210 158 94 21 318 56 357 313 96 96 126 142 224 212 230 248 295 335 334 263 325 351 25 35 314 294 340 289 286 295 297 291 297 294 275 262 265 273 268 220
329 330 328 334 345 343 343 351 346 343 4 2 356 344 334 337 337 344 338 336 336 331 332 330 333 334 335 337 335 337 329 326 326 310 330 85 172 213 354 2 145 173 174 165 179 192 188 222 192 158 86 351 270 87 74 318 179 163 133 166 238 225 263 293 308 336 320 187 29 342 340 345 293 283 358 272 278 287 274 271 285 287 282 282 277 282 267 215
336 337 335 347 359 3 4 357 349 349 4 4 359 346 337 338 340 345 337 335 335 333 335 330 333 335 337 338 337 336 331 341 340 299 77 121 147 140 60 21 101 168 177 172 202 228 256 285 171 151 90 265 289 92 149 226 196 177 143 185 231 226 280 282 294 321 322 66 86 286 332 324 287 283 292 274 286 285 262 244 250 262 272 281 283 293 293 236
336 332 333 351 352 350 355 344 339 349 1 8 1 343 339 338 337 338 332 333 334 335 335 332 334 337 341 340 337 337 349 21 287 243 131 133 138 130 71 38 130 173 183 191 231 243 281 318 87 86 64 261 311 64 217 218 166 180 200 208 228 230 275 273 296 316 306 7 5 316 321 292 286 312 270 263 266 264 262 245 242 252 260 270 278 291 297 283
326 322 312 318 324 334 353 349 353 6 9 8 355 344 342 336 334 333 329 329 328 328 328 330 332 335 340 338 331 338 15 90 252 200 157 149 144 136 59 35 180 178 184 191 260 305 307 347 40 63 80 277 265 221 248 234 158 208 259 235 235 232 247 271 302 306 299 318 301 287 272 263 322 298 258 238 251 255 263 258 255 263 265 270 278 288 292 290
306 319 304 294 315 355 10 13 19 22 15 6 354 347 341 335 334 330 327 326 322 321 321 324 326 328 337 331 317 356 83 233 267 245 203 176 169 255 337 291 198 180 186 178 212 259 146 33 354 183 145 283 239 224 267 309 165 198 269 270 258 260 264 286 304 305 304 286 271 270 293 283 268 276 285 258 260 264 267 263 260 269 277 282 284 283 283 287
302 321 305 309 37 38 35 35 33 29 18 8 355 348 340 335 332 327 326 323 320 320 316 318 320 321 327 312 283 9 357 241 262 235 203 192 225 267 270 251 189 186 188 186 210 209 144 168 223 202 248 263 246 266 303 355 316 205 251 272 300 309 295 303 308 302 300 285 279 293 289 257 242 260 304 271 272 275 273 273 267 271 283 287 284 284 280 277
343 339 342 45 65 65 58 50 39 28 16 4 351 344 338 333 329 327 326 322 322 319 316 316 310 303 288 216 103 24 269 238 243 208 193 205 228 230 216 198 185 192 188 204 225 229 195 199 223 192 180 241 317 316 327 28 301 268 303 307 332 314 298 305 299 287 284 278 279 287 276 259 249 289 284 263 266 274 284 292 277 274 282 285 285 283 291 319
43 53 81 73 72 69 68 54 34 17 2 351 344 340 334 330 328 326 324 321 320 316 316 315 301 273 226 173 97 66 253 245 245 208 185 187 189 175 187 174 181 196 193 219 243 247 218 201 221 171 160 238 330 302 330 93 237 303 349 329 315 305 302 295 286 280 276 273 258 254 268 270 248 122 272 265 264 276 299 301 291 300 291 288 292 308 10 30
109 106 100 91 86 75 70 45 21 6 351 345 341 337 333 330 328 325 323 320 318 316 313 308 285 232 190 141 127 208 248 253 253 202 153 155 157 168 181 171 185 199 202 234 269 281 165 156 150 130 159 323 334 310 322 241 250 314 353 340 311 316 312 286 279 277 269 267 236 208 258 279 94 163 252 265 277 294 304 299 311 337 321 303 309 14 45 46
126 129 121 104 99 85 66 35 16 2 348 346 341 338 335 331 329 326 324 321 318 315 306 294 250 210 169 102 196 226 239 233 231 213 183 192 182 189 182 178 195 206 214 229 297 55 92 109 87 105 229 134 348 313 280 230 326 314 344 343 301 328 311 276 270 262 229 225 211 156 271 292 223 211 246 264 287 313 313 307 336 353 323 319 5 51 54 41
127 133 123 109 98 74 51 26 12 1 352 347 340 337 333 329 328 325 322 322 319 313 301 272 215 191 162 54 236 229 231 228 232 246 237 227 217 206 195 191 194 203 215 211 119 70 70 94 100 129 215 107 260 272 130 343 16 306 328 135 284 346 308 272 267 263 233 214 172 130 248 284 251 233 249 275 308 342 325 317 338 341 314 344 47 62 53 40
134 120 113 110 88 56 31 18 5 356 350 342 336 332 327 324 323 320 319 319 318 312 295 222 193 170 147 248 251 234 228 228 240 242 226 213 203 199 205 203 198 199 208 195 134 66 54 71 88 94 205 141 220 303 4 353 305 282 335 137 251 5 280 281 282 283 351 286 136 129 202 263 272 268 257 274 304 344 321 308 319 323 328 37 66 64 54 47
141 124 129 121 87 40 12 2 353 346 340 333 328 324 319 318 318 317 316 317 317 305 253 171 174 152 74 278 263 230 214 217 229 222 205 196 187 186 202 200 197 196 205 199 154 60 64 77 79 89 286 261 129 22 354 339 306 268 293 303 290 175 257 295 290 245 185 273 24 130 213 261 275 279 269 263 291 317 310 298 315 353 36 63 66 57 59 51
249 233 241 82 53 22 0 343 338 335 329 324 318 314 311 312 315 314 314 323 331 133 117 132 167 149 348 276 183 158 193 205 209 198 186 188 188 176 161 155 162 164 172 185 163 118 93 82 72 127 260 314 105 99 42 1 324 301 188 241 262 216 261 300 302 299 148 140 12 208 240 271 269 282 284 276 281 304 309 301 336 45 62 66 60 52 56 45
248 245 289 19 22 18 7 342 329 322 319 315 308 305 308 310 309 313 333 14 115 123 96 84 162 168 288 237 115 197 198 198 194 185 182 185 181 164 145 126 128 130 114 102 125 116 75 80 101 139 51 346 131 101 49 339 293 303 249 227 246 236 245 281 303 331 95 119 226 244 241 250 263 285 292 292 286 298 313 317 33 75 71 63 62 56 51 43
243 252 294 8 11 12 4 346 331 320 314 310 307 309 313 314 285 273 34 87 116 109 59 38 100 76 277 213 207 208 168 178 181 181 191 181 165 163 156 123 126 119 93 55 49 77 38 38 92 71 354 345 130 125 171 234 228 243 243 245 264 259 262 274 276 268 122 145 227 247 253 253 270 280 285 288 289 322 357 24 77 85 77 71 64 59 54 49
252 264 281 353 14 3 348 344 337 326 315 311 315 317 325 351 286 238 129 92 102 129 116 201 159 161 250 229 197 161 129 157 159 167 185 170 162 173 179 135 125 109 89 62 333 145 117 58 64 93 239 241 215 191 205 220 214 222 231 233 244 259 269 261 259 236 196 244 248 242 252 254 263 267 271 277 290 358 43 78 90 88 82 80 71 66 61 54
254 267 293 324 353 344 332 339 342 332 318 319 327 328 352 40 4 342 298 225 213 218 217 212 203 228 273 251 146 147 139 149 147 160 170 162 160 163 161 109 100 61 107 146 206 216 134 114 145 197 205 221 225 216 217 227 229 233 245 252 242 243 263 260 267 265 184 220 258 238 245 267 264 270 270 272 304 12 81 99 96 95 89 86 82 76 67 62
249 262 286 309 320 328 324 330 343 338 317 321 331 339 121 130 37 313 291 274 250 241 242 241 228 237 255 215 153 160 149 122 45 147 164 160 153 150 165 119 107 270 225 159 164 193 126 157 212 215 209 220 234 228 224 236 242 241 237 248 257 244 256 263 263 269 190 171 263 270 304 288 278 279 278 287 342 24 116 117 110 104 97 88 86 80 73 71
247 259 269 287 298 315 314 319 333 332 311 324 339 41 125 132 149 201 240 298 278 251 240 251 245 244 251 232 184 175 157 174 316 218 178 159 153 177 187 137 144 209 211 134 107 127 157 212 233 226 214 225 251 251 238 244 245 245 229 219 260 260 276 289 283 290 72 163 261 300 307 277 275 273 285 317 61 69 78 104 111 108 103 93 87 85 79 73
247 260 268 275 286 307 310 313 317 307 294 10 34 86 116 125 137 158 151 320 292 264 232 244 243 243 251 239 189 162 173 211 208 239 192 158 153 204 172 159 179 204 196 167 160 163 189 231 235 233 221 222 251 262 257 262 262 249 233 221 258 264 264 282 294 316 310 222 257 278 278 277 274 272 308 18 86 91 73 87 90 90 101 98 95 88 79 74
246 252 259 267 277 300 308 311 304 272 197 99 96 91 105 138 162 152 129 100 285 279 246 225 222 219 221 208 162 150 182 213 186 222 189 165 154 174 174 180 182 196 213 198 186 191 216 225 219 225 223 212 235 259 257 257 275 260 221 205 237 254 225 225 274 326 325 313 309 279 310 307 253 248 267 61 92 96 95 95 86 80 91 92 91 81 71 71
242 242 246 261 270 291 304 310 298 203 198 187 151 103 101 146 189 158 90 21 286 294 289 213 69 98 129 108 137 148 147 196 249 219 182 176 172 155 195 195 175 206 220 209 199 210 235 234 210 218 228 210 217 247 240 214 249 290 236 208 221 240 236 228 279 11 10 323 315 75 332 305 254 242 212 165 128 104 103 96 93 91 82 81 80 75 70 69
237 237 242 254 255 270 297 305 216 189 225 217 197 124 115 198 188 162 84 42 287 279 216 125 36 137 144 97 131 115 79 285 287 51 142 177 254 151 204 229 180 207 215 212 208 220 235 224 204 219 229 210 207 239 229 174 162 277 249 210 210 216 212 215 201 73 20 264 292 69 105 277 277 263 246 217 154 123 109 91 94 91 76 77 75 72 71 66
231 234 243 249 242 241 258 219 191 204 229 216 201 163 179 253 196 182 77 20 285 214 123 336 354 122 152 163 112 108 121 255 353 31 69 37 330 64 185 242 201 206 218 114 5 257 216 186 171 187 202 185 196 238 226 156 137 243 245 148 128 155 169 188 169 175 231 254 317 0 140 258 278 242 245 243 183 125 114 95 88 86 80 79 77 74 74 67
229 233 240 244 237 227 227 222 209 210 195 172 166 168 209 210 195 157 72 358 282 123 110 298 64 78 90 61 65 107 182 241 97 343 2 39 357 45 113 243 185 252 281 131 206 267 238 170 203 174 148 169 204 236 200 148 151 240 229 117 109 131 148 150 131 164 292 348 309 266 156 237 276 249 249 241 184 148 149 128 111 104 97 90 85 81 78 76
230 230 235 236 228 221 225 233 235 211 191 165 137 146 186 187 177 85 83 204 316 83 335 20 104 32 43 58 32 106 107 29 131 249 348 49 25 67 158 239 129 309 293 173 207 266 308 189 205 149 142 207 219 254 152 143 183 228 146 88 63 71 81 78 103 112 24 353 251 220 178 207 269 276 266 215 176 188 165 133 128 120 110 100 92 84 74 72
235 233 231 222 209 206 212 227 232 219 193 171 139 140 174 170 105 107 191 211 60 79 170 71 120 135 99 86 347 217 133 72 135 95 20 56 23 24 269 249 63 65 336 354 262 264 298 274 202 143 175 198 170 80 59 113 159 125 84 51 21 18 39 49 65 84 58 294 244 211 199 191 260 285 250 208 221 175 149 141 142 124 109 103 91 83 69 65
235 231 222 207 200 200 192 220 228 215 203 190 167 157 173 98 99 174 211 186 50 203 144 128 165 124 134 138 157 196 158 139 146 115 100 90 49 22 16 358 26 54 10 337 312 297 318 314 252 232 198 139 110 85 15 25 63 88 77 63 31 347 16 34 9 46 110 252 258 230 206 181 217 263 251 314 315 145 145 155 148 131 118 110 98 89 77 64
232 223 211 203 204 203 192 198 209 204 207 202 173 119 127 180 203 204 216 97 110 201 161 177 181 162 181 174 173 190 162 163 185 150 144 137 134 186 192 184 160 73 342 260 282 322 299 242 237 275 261 138 117 113 337 358 32 79 86 85 71 326 352 25 299 178 211 246 258 224 172 168 228 249 45 10 350 48 112 130 134 129 124 118 111 104 91 75
221 213 204 203 203 199 194 182 170 187 196 186 157 100 106 205 215 188 199 216 203 174 129 126 156 157 150 147 217 192 151 178 187 173 165 138 147 225 244 229 180 136 221 208 230 324 302 294 257 171 297 169 142 164 229 308 101 134 139 129 130 173 209 251 246 239 261 260 251 205 142 205 254 292 36 33 18 54 90 104 115 119 121 122 118 112 103 94
202 198 196 196 196 197 193 181 168 177 178 166 132 97 146 213 221 173 201 234 235 128 96 97 119 98 108 163 217 166 143 213 178 163 171 140 143 237 257 250 216 175 146 167 209 198 230 302 237 178 250 184 170 189 176 143 159 179 161 142 153 169 175 215 225 213 245 263 272 269 212 212 221 351 30 46 56 68 86 98 105 107 113 119 114 113 113 112
186 187 189 187 191 198 194 189 186 173 167 153 111 149 186 202 204 177 208 238 236 123 82 56 97 87 348 262 229 171 142 223 172 151 170 164 169 198 205 220 206 183 145 165 229 184 192 256 247 220 245 165 179 218 154 116 104 230 142 123 197 200 175 211 236 196 187 265 285 265 243 203 148 96 58 75 76 76 84 93 101 102 108 112 112 121 127 130
179 182 185 187 196 199 193 194 190 173 165 144 145 198 205 190 175 190 212 217 189 142 123 74 82 121 249 294 255 225 83 113 168 144 190 200 192 209 208 206 193 186 173 170 215 200 195 255 281 6 355 186 188 219 172 134 167 229 125 183 228 190 141 138 286 257 129 231 253 221 260 304 99 96 68 82 81 85 94 100 106 115 118 118 127 142 144 142
171 174 180 191 202 200 195 197 184 172 165 154 195 207 197 194 188 186 205 165 160 131 125 160 155 148 192 273 270 227 64 21 177 146 217 219 214 217 201 188 180 188 182 165 214 204 160 265 274 144 187 248 196 150 5 55 125 128 168 229 248 64 94 107 245 290 270 245 251 241 255 259 224 230 148 109 114 122 134 128 125 133 133 136 149 156 157 152
163 163 179 202 203 197 194 194 179 167 162 183 214 219 187 203 206 164 179 155 142 108 117 178 192 132 157 187 266 211 110 50 144 146 206 237 232 166 149 149 19 30 24 92 153 225 104 283 282 202 167 257 28 66 356 342 48 125 183 235 57 66 286 320 161 223 250 256 271 258 246 245 230 207 168 170 172 162 161 150 145 152 152 159 166 168 174 165
152 147 230 212 200 193 189 187 174 161 185 205 214 221 184 205 238 187 170 126 108 118 136 187 175 117 158 167 178 190 137 199 225 180 173 239 241 54 77 122 43 12 1 78 137 236 92 165 276 309 120 140 30 63 197 287 348 56 34 346 60 164 197 229 213 191 227 254 268 256 241 248 250 196 174 191 185 167 166 163 162 170 173 181 181 180 187 183
137 131 324 199 192 187 180 178 171 173 207 208 201 194 148 192 235 222 192 163 118 103 164 179 157 181 219 201 208 232 204 220 227 213 210 231 255 340 42 65 107 34 4 50 100 84 62 169 236 314 349 76 175 203 180 179 170 62 19 336 286 263 239 266 258 176 168 226 256 257 250 252 269 273 201 196 179 164 164 160 163 178 186 196 196 191 194 196
119 135 328 173 181 177 169 171 187 195 204 201 164 163 155 170 217 239 213 182 171 67 126 165 179 194 202 208 213 205 199 211 201 199 224 241 245 246 203 96 107 120 29 40 56 85 90 187 194 274 293 217 224 231 169 140 147 152 170 208 210 214 241 273 270 226 163 200 228 246 261 263 268 323 323 161 151 152 157 154 162 186 196 201 201 197 196 196
103 135 115 164 176 172 165 188 210 186 209 202 158 162 163 152 169 209 208 177 174 169 93 164 197 197 196 205 202 184 186 203 202 206 221 225 219 212 194 164 97 91 94 74 351 134 108 126 158 239 245 225 240 252 204 146 183 175 176 206 198 185 174 215 250 253 228 266 268 258 267 263 236 304 344 109 142 153 157 160 173 192 202 200 199 202 202 199
119 139 120 166 175 170 168 224 214 205 240 190 134 175 173 155 185 187 182 184 174 159 153 187 194 200 214 214 205 201 195 202 218 211 205 215 220 222 195 169 109 78 89 114 253 30 68 98 182 258 282 299 296 305 358 22 51 144 312 0 158 184 169 186 224 222 139 260 273 271 259 246 239 300 343 118 142 154 169 182 185 192 201 202 204 207 203 194
127 110 79 172 178 178 187 212 199 212 225 188 161 206 198 195 201 185 179 191 182 156 168 195 191 204 219 206 200 208 199 205 244 225 196 196 208 42 63 124 118 103 113 197 195 172 97 152 153 179 313 322 328 340 355 4 32 106 261 260 141 138 76 90 81 71 138 235 233 233 248 234 214 315 346 104 141 167 206 214 195 192 200 207 213 209 195 179
119 105 14 185 186 192 219 209 177 208 212 210 216 211 210 221 206 186 182 187 185 171 176 199 191 188 195 185 189 209 204 200 227 228 192 186 217 10 50 89 106 113 164 189 139 129 163 175 139 146 216 249 269 266 244 293 354 12 276 293 254 228 257 15 20 253 229 238 205 227 250 258 256 242 201 215 206 207 229 238 225 217 214 212 212 203 185 169
135 171 184 182 191 210 251 242 182 221 209 206 219 218 217 226 219 179 182 193 199 187 179 183 170 166 180 183 184 209 217 204 190 200 184 172 211 324 83 96 93 127 167 146 109 103 107 201 177 169 203 228 228 225 200 123 86 265 284 296 284 265 216 155 177 224 215 350 275 249 248 267 277 266 225 212 221 224 232 235 231 232 232 227 215 189 172 168
158 183 179 173 177 207 231 233 216 222 209 196 201 213 216 221 228 208 199 205 195 179 175 193 174 180 190 184 184 206 207 194 193 203 190 171 178 121 106 82 86 150 159 134 121 102 99 254 230 177 208 234 210 216 229 91 156 224 247 274 279 278 257 181 200 215 175 248 266 258 251 253 263 268 259 225 212 222 234 233 227 231 233 227 193 157 160 170
199 193 195 193 180 196 207 211 209 214 219 211 205 216 222 219 217 214 208 195 174 173 183 217 204 197 186 175 178 196 191 188 203 203 187 174 161 140 108 40 47 168 130 100 110 97 115 237 240 166 219 258 236 239 300 41 215 225 233 252 265 270 267 256 246 233 209 230 258 265 265 258 257 266 269 248 220 219 226 229 231 231 220 187 148 153 173 185
198 270 262 277 270 209 211 205 198 205 215 215 215 224 227 225 220 212 174 149 178 193 193 205 206 194 186 177 169 179 190 189 205 213 184 163 161 158 158 0 346 38 73 100 156 83 111 231 243 163 227 272 263 263 341 336 263 265 258 253 254 260 264 260 254 248 235 236 251 259 263 263 264 264 259 248 232 214 201 198 161 132 149 151 154 171 189 199
157 263 261 342 315 235 239 211 189 200 215 212 216 226 226 229 225 207 164 175 190 194 196 202 196 181 187 190 178 193 207 180 181 203 176 154 173 173 166 198 183 86 63 102 209 4 88 165 206 128 337 286 261 159 62 279 262 272 273 264 257 260 264 256 253 256 257 251 251 254 258 263 269 267 251 236 207 151 117 120 132 146 153 153 168 191 200 205
227 311 123 78 270 209 190 191 179 193 213 209 216 222 219 226 217 180 172 234 186 182 198 192 174 150 170 181 175 196 208 157 156 175 158 152 172 166 156 184 153 128 90 120 148 356 87 151 284 80 64 279 263 109 158 275 286 277 270 264 257 251 249 249 247 242 245 253 259 262 258 257 266 264 251 239 98 100 123 136 140 162 171 167 182 201 205 207
244 259 157 130 270 225 192 184 178 192 210 208 215 218 217 226 209 160 178 305 88 201 225 184 164 140 143 171 178 183 171 139 136 141 125 117 111 100 107 130 133 134 144 149 149 133 127 130 110 101 131 270 280 111 152 256 292 269 258 251 248 246 246 251 253 244 242 246 254 257 253 250 246 229 226 239 114 153 181 171 147 144 170 187 197 200 207 213
Height
826 826 826 826 826 826 825 825 825 825 825 824 824 824 823 823 823 823 822 822 822 821 821 820 819 819 818 817 816 815 814 812 811 811 810 809 809 809 809 809 809 810 811 811 811 812 812 813 813 813 814 815 816 817 817 816 816 822 829 838 840 838 835 825 822 822 820 819 816 813 812 813 814 811 806 804 805 805 803 801 799 798 795 794 792 790 792 793
826 826 826 826 826 825 825 825 824 824 824 824 824 824 823 823 822 822 822 822 822 821 821 820 819 819 818 817 816 814 813 811 810 809 807 807 808 809 809 809 809 810 810 811 811 811 812 813 813 813 815 817 818 818 819 818 818 825 832 838 837 832 824 817 817 817 816 817 814 812 812 811 812 811 806 808 809 807 807 802 798 798 793 791 790 790 792 792
826 826 825 825 825 825 825 824 824 824 824 824 823 823 823 822 822 822 822 821 821 821 820 819 819 818 818 817 816 815 813 811 810 809 806 806 808 809 809 809 809 810 810 810 811 811 812 812 812 814 817 820 819 819 822 820 821 824 829 837 833 823 819 814 814 814 813 813 813 813 811 810 810 807 807 809 809 807 809 804 800 799 792 789 789 789 790 790
826 826 825 825 825 825 824 824 824 824 824 824 823 823 823 822 822 822 821 821 821 821 820 819 819 818 818 817 816 816 812 813 813 809 807 807 808 809 810 810 809 810 810 811 811 811 811 812 812 813 818 822 820 820 823 821 822 824 827 832 825 819 820 815 811 812 811 810 812 813 812 812 808 806 807 808 811 809 805 801 798 796 791 788 787 786 788 789
826 825 825 825 825 824 824 824 824 824 824 823 823 823 822 822 822 821 821 821 820 820 820 819 819 818 818 816 817 814 814 821 815 807 808 808 809 809 809 810 810 810 810 811 811 811 811 811 813 815 819 822 822 822 823 818 818 823 823 823 818 818 821 814 810 812 810 810 811 812 812 810 807 807 807 808 813 807 798 795 793 791 788 787 786 785 786 787
825 825 825 825 824 824 824 824 824 824 824 823 823 822 822 822 821 821 821 820 820 820 819 819 818 818 817 816 817 814 818 824 813 807 810 808 809 809 809 809 809 810 810 811 811 811 812 812 815 819 821 823 824 823 820 816 817 823 822 818 816 817 818 814 811 812 811 811 811 811 809 807 809 809 806 807 807 798 791 791 790 787 785 785 785 786 786 785
825 824 824 824 824 824 824 824 824 823 823 823 823 822 822 821 821 821 820 820 819 819 818 818 817 817 817 816 816 815 818 817 807 807 809 807 809 808 809 809 809 809 809 810 811 812 813 815 818 820 822 824 824 821 818 816 817 822 823 818 816 815 815 813 812 812 811 811 810 808 807 807 810 809 805 804 798 791 789 788 788 785 782 784 785 785 785 784
824 824 824 824 824 824 824 824 823 823 823 822 822 822 821 821 820 820 819 819 818 818 817 817 817 816 816 815 815 817 818 811 805 807 807 807 808 807 808 808 808 809 809 810 810 811 813 816 818 818 823 824 821 820 818 818 819 821 821 818 816 815 814 812 812 811 809 809 807 807 808 807 807 807 806 801 794 788 786 786 786 785 783 784 785 785 784 784
824 824 823 824 824 824 824 823 823 823 822 822 822 821 821 820 820 819 818 818 817 817 816 815 815 814 815 814 815 819 814 806 805 806 806 807 807 807 807 807 808 808 808 810 809 811 814 815 816 816 821 821 819 819 818 821 822 819 818 818 817 816 814 812 811 808 808 807 806 808 808 805 804 806 806 797 791 786 784 786 785 786 786 785 784 784 784 784
824 823 823 823 823 824 823 823 823 823 822 822 821 821 820 819 819 818 817 817 816 815 814 815 814 813 814 812 816 820 809 803 806 805 806 806 806 807 807 806 807 807 808 809 809 811 812 813 813 812 816 818 819 819 818 821 822 818 818 818 816 816 813 810 810 806 806 806 805 809 807 803 804 808 806 794 787 786 785 787 785 786 787 786 784 785 787 789
823 823 823 823 823 823 823 823 823 822 822 821 821 820 819 819 818 817 816 815 815 814 813 813 813 813 813 812 817 816 806 803 805 804 805 806 806 807 806 807 807 807 808 808 809 810 810 811 810 812 816 818 819 819 818 818 818 817 817 818 815 815 813 809 809 805 805 805 801 805 806 802 805 809 803 792 787 787 788 788 787 788 788 786 785 788 793 795
823 823 823 823 823 823 823 823 822 822 821 821 820 819 818 817 816 816 815 814 813 813 812 812 812 812 812 813 814 809 803 804 804 804 805 804 806 806 806 807 807 808 808 808 809 809 809 809 809 814 817 817 820 821 819 816 817 816 816 821 818 818 816 807 805 803 803 804 796 801 810 806 805 804 796 790 789 788 787 787 788 789 787 785 787 793 797 799
822 823 823 823 823 822 822 822 822 821 820 820 819 818 817 816 815 814 813 813 812 811 811 811 811 810 812 812 807 803 803 803 803 804 804 804 805 806 806 807 807 808 808 808 809 809 810 809 809 813 814 817 820 819 816 814 816 816 817 822 822 826 820 803 801 801 800 804 795 801 818 811 799 797 792 789 790 789 787 786 788 789 786 787 793 799 800 801
822 822 822 822 822 822 822 821 821 821 820 819 818 817 816 815 814 813 812 812 811 810 810 810 810 810 812 809 803 802 803 802 803 803 803 804 804 805 806 806 807 808 808 809 809 810 810 809 810 812 814 816 817 815 817 818 817 818 820 822 826 833 823 800 799 801 800 804 796 800 819 812 795 793 791 788 788 790 790 788 788 788 788 793 799 801 803 804
821 821 821 822 822 821 821 821 821 820 819 818 817 816 815 814 813 812 812 811 810 810 809 810 810 810 812 807 801 802 802 802 803 803 803 804 804 805 805 806 807 807 808 809 809 810 810 810 811 815 816 814 815 820 825 825 820 819 825 828 827 831 823 804 798 799 800 802 799 803 815 812 799 791 788 787 787 788 791 790 789 791 795 800 802 804 806 807
821 821 821 821 821 821 821 821 820 820 819 818 817 816 814 814 813 812 811 810 810 810 809 811 811 811 813 807 802 802 802 802 802 802 804 804 804 805 805 806 807 807 808 809 809 810 810 811 813 816 816 816 819 825 830 832 828 823 827 830 827 827 825 813 801 796 798 801 802 805 810 809 801 791 785 785 786 788 791 790 791 798 802 804 806 807 808 808
821 820 820 820 820 820 820 820 820 819 818 817 816 814 813 812 811 811 810 810 810 810 810 811 811 812 810 804 803 803 801 801 801 802 804 804 805 805 806 806 807 808 808 809 810 810 811 813 816 818 818 821 823 826 836 841 835 827 827 829 825 823 823 818 807 799 798 801 803 805 808 806 799 792 787 782 784 788 791 791 796 804 807 807 809 809 809 809
820 819 819 820 819 819 819 819 819 818 817 816 815 813 812 811 811 811 810 810 810 810 811 811 812 815 811 803 803 802 800 801 801 802 803 804 805 806 806 807 807 809 809 811 812 812 815 816 818 822 823 825 825 829 838 837 829 826 826 826 824 821 820 818 811 802 799 801 803 806 808 807 800 796 791 783 782 787 790 795 802 806 808 810 811 811 812 811
819 819 819 819 819 819 818 818 818 817 816 815 814 812 811 810 810 810 810 810 810 809 810 810 810 812 808 801 800 800 799 800 801 802 803 804 805 806 806 807 808 809 813 816 816 815 816 819 824 828 828 826 823 825 826 821 819 821 821 822 823 823 820 814 807 799 798 803 805 805 806 806 803 798 793 785 782 787 791 798 805 807 809 811 812 813 814 814
818 818 818 818 818 817 817 817 817 816 815 814 813 811 810 811 812 811 810 810 808 804 804 805 804 803 801 798 798 799 800 801 801 802 802 803 804 806 807 807 809 812 814 816 818 816 815 823 829 827 823 819 815 816 815 814 816 818 820 821 822 823 820 811 804 798 796 803 804 801 804 804 801 796 791 786 785 788 793 801 807 809 810 812 813 815 815 816
817 817 817 817 817 816 817 816 815 815 814 813 812 811 811 813 814 814 812 807 803 800 801 799 799 799 796 795 797 797 799 801 802 802 803 803 804 807 808 809 813 816 815 815 817 815 816 825 825 817 813 809 808 811 813 815 816 818 820 821 821 822 818 809 804 799 796 805 805 800 804 804 798 794 787 784 788 792 796 803 808 810 812 814 814 816 817 817
816 816 816 816 816 816 816 815 815 814 813 813 812 811 812 812 813 813 813 810 802 798 798 796 795 796 792 793 795 795 797 801 803 803 802 803 805 807 807 810 815 814 813 815 818 820 824 826 817 809 809 808 808 810 812 814 815 817 819 821 823 820 816 810 804 800 799 805 806 802 805 804 798 792 787 787 794 800 802 804 809 811 813 815 816 818 818 819
815 815 816 815 815 815 814 814 814 813 812 812 811 811 811 812 812 812 813 815 807 796 795 794 794 794 792 793 793 794 798 800 802 803 801 803 805 806 807 810 814 812 812 815 819 824 827 821 809 805 809 811 812 811 812 813 814 816 817 820 821 816 819 817 807 803 802 803 804 804 806 806 800 792 793 799 801 805 809 808 811 813 814 817 818 819 819 819
813 813 815 814 814 815 813 813 812 812 812 811 811 811 811 811 811 812 813 814 810 798 791 791 791 791 792 792 792 793 797 797 798 800 799 801 803 804 805 807 811 814 812 812 814 817 815 807 802 804 809 812 814 813 812 816 817 816 813 815 815 812 816 817 810 806 804 803 801 804 810 808 799 792 798 807 806 807 812 812 815 817 818 819 819 820 821 821
811 812 813 813 814 813 813 812 811 811 811 810 811 810 810 811 810 812 812 814 813 801 791 790 790 791 791 791 792 793 795 796 797 798 798 798 800 802 803 802 807 813 810 808 812 815 810 801 799 804 807 810 813 814 811 814 818 816 810 808 808 808 811 812 812 811 813 813 805 806 817 813 797 792 797 803 806 809 813 815 819 821 821 822 822 823 824 824
809 810 811 812 812 812 813 811 810 811 810 810 810 809 810 810 810 811 812 818 816 799 792 793 792 793 792 792 793 792 798 800 797 798 798 799 799 800 803 801 801 807 806 804 809 809 804 799 798 802 804 807 811 812 808 809 817 819 810 804 805 807 810 812 811 814 819 820 810 808 819 819 803 794 791 790 798 808 814 817 821 823 824 824 825 826 827 827
807 808 809 810 810 811 812 810 810 809 809 809 808 809 810 808 811 810 812 824 815 793 792 795 792 793 792 793 793 794 802 802 798 799 799 800 800 799 805 805 802 803 800 803 811 806 799 799 801 801 803 807 810 809 805 805 815 818 808 806 807 806 810 810 810 815 817 818 816 811 815 822 814 800 786 780 792 808 815 820 823 825 827 827 828 829 829 830
805 806 807 807 808 809 809 808 809 807 807 808 807 809 809 808 812 809 816 830 810 785 789 793 792 793 792 793 794 796 802 799 800 803 799 801 801 800 806 806 805 806 801 806 816 807 799 802 802 801 806 810 808 804 802 804 811 812 808 809 808 807 810 810 812 818 819 822 826 817 815 822 815 800 789 784 794 808 815 820 825 827 828 829 830 831 830 830
802 803 804 805 806 807 807 808 808 806 806 806 807 809 808 809 811 809 823 829 800 782 790 792 792 794 792 795 796 796 799 799 801 803 800 801 802 802 807 806 806 807 803 806 812 806 802 804 803 803 807 807 803 803 804 804 807 809 809 810 809 810 813 815 819 822 824 829 828 818 816 820 811 794 790 790 792 801 812 820 824 826 828 829 831 833 832 830
798 799 800 802 803 804 806 806 806 806 806 805 807 808 808 810 811 818 833 823 795 788 793 791 793 795 795 799 799 797 798 800 801 802 802 803 803 803 805 805 805 806 807 807 808 806 804 804 804 802 803 801 801 808 811 808 808 809 809 810 812 816 818 821 824 824 831 831 820 813 810 815 813 794 786 790 787 790 806 819 824 826 828 830 832 833 834 833
795 796 797 798 799 801 803 804 803 804 805 805 807 807 809 812 814 826 829 807 793 795 793 793 796 795 796 799 799 799 799 801 802 802 804 805 806 806 807 807 808 810 813 810 808 808 806 805 803 799 799 801 801 807 812 812 811 809 811 813 817 821 822 828 829 831 838 828 811 810 810 815 818 796 785 795 792 787 797 810 820 826 829 832 833 834 835 834
791 793 794 795 796 797 799 800 800 802 803 804 806 807 811 818 822 824 813 796 795 796 790 793 795 793 796 797 796 798 800 801 802 802 803 806 809 809 808 807 806 811 816 813 811 810 806 804 802 799 799 800 801 807 813 814 812 811 814 819 827 831 830 832 835 837 837 822 807 807 810 816 810 793 793 805 803 796 798 807 818 824 829 832 833 835 835 835
787 789 792 793 794 796 797 797 798 801 802 803 806 807 814 824 823 812 803 796 794 790 786 789 790 790 794 795 795 796 798 799 800 801 801 805 808 808 807 805 802 804 810 813 814 810 806 804 803 803 800 797 800 806 810 811 813 815 814 819 829 833 833 832 831 834 830 816 806 804 808 810 797 794 810 817 813 809 808 814 821 824 829 832 833 834 835 835
785 787 789 791 794 795 795 796 797 799 801 802 805 810 818 823 814 803 800 795 787 785 786 788 789 790 792 794 793 792 796 797 797 799 800 804 809 807 805 804 803 802 804 811 812 809 810 806 801 801 798 796 797 798 801 804 810 814 811 814 819 817 820 823 819 821 821 812 806 806 806 799 790 803 822 823 819 819 818 821 825 827 830 832 832 834 834 835
784 787 789 789 792 793 793 794 795 798 800 801 805 812 817 815 807 801 799 792 785 786 788 789 790 793 795 794 790 787 791 795 795 797 800 802 805 804 800 798 799 800 803 809 809 807 811 805 796 797 797 795 797 795 796 801 809 813 810 813 815 807 806 813 813 812 815 815 810 804 799 797 804 819 827 823 823 823 824 827 828 829 832 832 833 833 832 833
783 786 787 788 789 791 792 793 794 797 797 800 807 811 807 801 797 795 791 786 785 786 789 793 793 796 799 795 791 789 789 792 794 797 799 799 799 797 793 791 792 794 797 802 803 803 807 804 797 799 798 796 798 796 794 798 803 809 812 810 809 805 803 811 815 811 814 820 812 798 795 802 812 821 825 825 826 827 828 829 829 831 832 832 832 832 832 832
782 784 785 785 786 788 790 792 794 796 796 799 804 801 796 791 786 786 785 783 785 784 788 795 793 794 799 797 794 793 792 794 794 796 799 798 795 791 788 788 789 789 789 791 795 797 802 804 798 797 797 797 799 798 795 797 799 804 810 805 801 805 805 809 819 818 818 822 812 796 797 801 800 808 824 828 826 829 831 830 831 832 831 832 832 831 831 831
780 782 783 783 784 786 789 792 793 794 796 799 799 793 791 789 783 782 783 783 785 785 789 794 792 792 796 798 797 794 795 798 796 798 800 796 791 785 785 789 791 790 788 788 793 796 800 804 800 795 797 798 799 800 799 800 799 801 804 801 803 811 811 810 818 822 821 821 814 800 798 797 792 800 819 823 821 827 830 830 832 831 831 831 830 831 831 831
779 782 781 779 781 784 787 790 791 793 795 795 794 792 789 788 784 782 782 783 785 786 790 793 792 793 796 797 798 796 796 798 797 799 800 795 790 786 785 789 791 792 790 788 792 797 798 805 805 797 796 799 799 802 805 804 802 802 803 803 805 810 812 811 812 814 815 817 815 807 800 795 793 800 807 809 815 823 827 829 831 830 830 830 829 830 830 830
780 782 781 778 780 782 785 789 790 791 790 786 786 788 787 786 784 781 782 783 784 787 791 792 793 796 796 796 797 796 796 797 797 798 797 792 789 789 789 789 789 792 792 789 793 798 798 804 808 802 799 802 801 801 802 800 801 804 806 808 808 808 809 811 809 806 810 815 814 812 806 794 797 807 803 800 810 819 822 826 828 828 829 829 828 828 828 829
779 782 780 778 780 781 784 787 786 785 784 781 782 785 785 784 783 781 781 782 784 787 788 790 792 794 795 796 797 796 796 797 797 797 797 792 789 791 793 792 790 792 793 792 795 799 800 804 808 806 803 803 800 796 796 798 802 805 807 808 808 809 811 816 816 806 805 810 808 810 807 795 800 814 809 804 811 816 820 823 825 826 825 824 826 825 826 826
778 780 780 780 781 781 782 782 780 779 780 779 779 780 780 781 782 782 781 781 784 786 787 789 790 791 793 794 794 794 795 796 796 795 795 792 788 789 792 792 791 791 794 798 800 801 803 807 809 807 803 801 798 795 796 799 799 802 806 805 804 807 809 815 818 810 805 807 803 806 808 801 808 819 814 811 813 815 819 820 819 822 822 821 823 823 823 824
777 779 780 781 781 781 783 783 780 780 779 775 775 776 777 779 781 781 782 783 784 785 788 790 789 790 791 790 792 793 794 796 795 792 793 793 791 790 791 790 790 792 796 800 803 803 804 809 812 809 803 800 797 796 799 800 799 801 806 808 807 809 811 813 816 815 816 812 804 810 812 802 809 819 815 815 816 816 819 816 814 819 820 821 822 820 821 822
776 778 780 781 781 781 783 782 781 781 779 776 777 777 777 777 779 780 781 782 782 783 787 788 786 787 787 787 790 790 792 795 795 791 792 793 792 792 791 790 790 795 799 799 800 804 806 810 816 817 814 809 803 800 802 803 806 808 810 812 813 813 816 818 817 821 827 818 809 817 814 800 808 821 817 815 817 816 817 816 816 818 818 819 820 819 820 822
777 780 780 779 780 780 779 776 777 778 778 779 779 778 778 776 774 775 778 779 779 779 783 783 782 783 785 786 789 789 788 791 793 793 792 793 793 793 793 792 792 796 800 799 799 803 806 808 812 815 818 817 810 805 806 809 812 812 811 812 813 814 816 819 821 826 829 822 817 821 814 800 806 818 818 817 817 815 814 815 817 816 815 816 816 818 820 822
776 780 781 780 779 778 776 774 776 777 776 778 780 777 776 776 772 771 774 776 776 776 778 779 780 783 785 786 789 791 789 789 791 792 792 793 795 795 795 795 795 797 800 800 800 803 808 810 809 807 808 808 806 805 809 815 816 814 813 812 812 815 818 820 825 827 826 825 824 816 809 806 804 805 811 815 815 814 811 811 814 813 813 813 814 817 820 821
773 773 774 776 777 776 776 774 776 775 773 775 776 772 772 774 773 772 773 772 773 775 778 780 779 781 784 785 788 791 790 791 792 791 792 793 794 797 798 797 799 800 800 801 801 803 809 811 809 809 808 806 806 810 813 817 818 817 816 814 811 812 816 821 825 823 821 828 825 807 803 811 806 798 802 807 810 811 809 809 810 810 809 811 814 818 819 820
770 767 764 765 767 769 769 768 769 772 771 771 771 767 767 769 770 771 772 772 772 773 778 781 779 778 779 780 785 788 789 792 794 791 791 792 794 799 801 800 802 802 801 802 802 803 809 811 808 812 813 808 810 815 815 816 818 817 816 815 812 811 814 819 822 818 818 822 817 804 804 809 805 800 800 802 803 804 804 805 806 806 808 811 814 816 817 818
767 767 764 762 762 761 759 757 762 768 769 770 770 765 764 765 764 765 767 771 774 773 774 778 776 776 777 777 781 785 785 789 792 790 790 792 794 798 801 802 804 804 803 804 803 804 810 812 811 813 814 812 813 817 817 817 818 817 816 815 813 812 814 817 816 812 813 816 811 807 809 806 801 800 799 799 800 801 803 805 805 805 808 810 812 814 814 815
767 767 766 764 763 761 758 757 761 765 765 767 768 763 761 762 762 762 764 766 770 770 770 773 772 772 775 776 778 781 780 781 784 786 789 791 793 795 799 800 802 805 806 806 807 808 810 814 814 814 817 817 815 819 821 819 819 819 816 813 812 814 816 815 813 810 812 814 809 808 812 807 799 797 797 799 800 801 803 805 804 805 807 808 810 811 812 814
768 768 767 768 764 759 759 759 759 763 764 763 762 759 759 761 759 760 764 764 765 765 765 768 769 772 776 778 778 780 782 782 782 785 788 790 791 794 797 799 801 805 807 808 810 809 810 815 815 816 822 819 814 821 823 818 820 824 818 811 810 814 814 809 808 808 807 807 807 809 812 807 799 796 796 799 801 800 801 803 804 806 807 807 808 809 811 812
768 768 768 770 767 759 757 758 758 760 758 755 756 756 757 758 756 758 765 767 765 765 764 764 766 771 777 778 778 782 786 787 788 791 793 793 794 797 798 800 802 803 806 809 812 810 811 816 816 818 825 823 819 825 824 822 832 829 811 803 805 807 809 807 806 804 801 803 807 808 805 800 797 797 798 799 800 800 800 802 804 806 807 807 807 807 809 810